| time (UTC) | temp F | wind direction | speed MPH | gust MPH | rain 1hr in | rain 24hr in | rain mn in | humidity % | barometer mb |
| 20260507035641 | 54 | 4 | 1.0 | 9.0 | 0.00 | 0.10 | 0.00 | 83 | 1007.9 |
| 20260507035332 | 54 | 4 | 3.0 | 9.0 | 0.00 | 0.10 | 0.00 | 83 | 1007.8 |
| 20260507035152 | 54 | 360 | 3.0 | 6.0 | 0.00 | 0.10 | 0.00 | 83 | 1007.8 |
| 20260507034838 | 54 | 8 | 0.0 | 5.0 | 0.00 | 0.10 | 0.10 | 84 | 1007.9 |
| 20260507034639 | 54 | 5 | 1.0 | 5.0 | 0.00 | 0.10 | 0.10 | 83 | 1007.9 |
| 20260507034346 | 54 | 5 | 1.0 | 6.0 | 0.00 | 0.10 | 0.10 | 83 | 1007.8 |
| 20260507034147 | 54 | 2 | 3.0 | 6.0 | 0.00 | 0.10 | 0.10 | 83 | 1007.8 |
| 20260507033833 | 54 | 2 | 1.0 | 6.0 | 0.00 | 0.10 | 0.10 | 83 | 1007.7 |
| 20260507033656 | 54 | 360 | 3.0 | 6.0 | 0.00 | 0.10 | 0.10 | 83 | 1007.7 |
| 20260507033403 | 54 | 351 | 2.0 | 5.0 | 0.00 | 0.10 | 0.10 | 84 | 1007.7 |
| 20260507033140 | 54 | 346 | 3.0 | 5.0 | 0.00 | 0.10 | 0.10 | 83 | 1007.6 |
| 20260507032850 | 54 | 360 | 2.0 | 5.0 | 0.00 | 0.10 | 0.10 | 83 | 1007.6 |
| 20260507032710 | 54 | 360 | 2.0 | 5.0 | 0.00 | 0.10 | 0.10 | 83 | 1007.6 |
| 20260507032339 | 54 | 7 | 2.0 | 5.0 | 0.00 | 0.10 | 0.10 | 83 | 1007.6 |
| 20260507032138 | 54 | 7 | 2.0 | 5.0 | 0.00 | 0.10 | 0.10 | 83 | 1007.7 |
| 20260507031848 | 54 | 7 | 2.0 | 10.0 | 0.00 | 0.10 | 0.10 | 83 | 1007.6 |
| 20260507031647 | 54 | 7 | 3.0 | 13.0 | 0.00 | 0.10 | 0.10 | 83 | 1007.5 |
| 20260507031336 | 54 | 356 | 2.0 | 13.0 | 0.00 | 0.10 | 0.10 | 83 | 1007.5 |
| 20260507031133 | 54 | 360 | 5.0 | 13.0 | 0.00 | 0.10 | 0.10 | 83 | 1007.5 |
| 20260507030844 | 55 | 13 | 3.0 | 13.0 | 0.00 | 0.10 | 0.10 | 82 | 1007.5 |
| 20260507030642 | 55 | 356 | 4.0 | 13.0 | 0.00 | 0.10 | 0.10 | 82 | 1007.5 |
| 20260507030333 | 55 | 356 | 5.0 | 13.0 | 0.00 | 0.10 | 0.10 | 83 | 1007.6 |
| 20260507030131 | 55 | 13 | 4.0 | 12.0 | 0.00 | 0.10 | 0.10 | 83 | 1007.6 |
| 20260507025909 | 55 | 2 | 2.0 | 12.0 | 0.00 | 0.10 | 0.10 | 83 | 1007.6 |
| 20260507025646 | 55 | 2 | 4.0 | 12.0 | 0.00 | 0.10 | 0.10 | 82 | 1007.5 |
| 20260507025337 | 55 | 6 | 6.0 | 12.0 | 0.00 | 0.10 | 0.10 | 83 | 1007.6 |
| 20260507025134 | 55 | 340 | 5.0 | 12.0 | 0.00 | 0.10 | 0.10 | 83 | 1007.6 |
| 20260507024847 | 55 | 11 | 6.0 | 12.0 | 0.00 | 0.10 | 0.10 | 83 | 1007.7 |
| 20260507024645 | 55 | 11 | 6.0 | 12.0 | 0.00 | 0.10 | 0.10 | 83 | 1007.7 |
| 20260507024335 | 55 | 356 | 3.0 | 11.0 | 0.00 | 0.10 | 0.10 | 84 | 1007.7 |
| 20260507024134 | 55 | 7 | 4.0 | 11.0 | 0.00 | 0.10 | 0.10 | 83 | 1007.8 |
| 20260507023841 | 55 | 9 | 5.0 | 11.0 | 0.00 | 0.10 | 0.10 | 84 | 1007.7 |
| 20260507023643 | 55 | 356 | 4.0 | 11.0 | 0.00 | 0.10 | 0.10 | 84 | 1007.6 |
| 20260507023330 | 55 | 334 | 4.0 | 11.0 | 0.00 | 0.10 | 0.10 | 84 | 1007.8 |
| 20260507023132 | 56 | 351 | 4.0 | 11.0 | 0.00 | 0.10 | 0.10 | 84 | 1007.9 |
| 20260507022840 | 56 | 356 | 3.0 | 11.0 | 0.00 | 0.10 | 0.10 | 84 | 1008.1 |
| 20260507022642 | 56 | 11 | 5.0 | 11.0 | 0.00 | 0.10 | 0.10 | 85 | 1008.0 |
| 20260507022349 | 55 | 6 | 5.0 | 10.0 | 0.00 | 0.10 | 0.10 | 85 | 1008.0 |
| 20260507022152 | 55 | 356 | 4.0 | 11.0 | 0.00 | 0.10 | 0.10 | 85 | 1008.0 |
| 20260507021838 | 55 | 356 | 6.0 | 11.0 | 0.00 | 0.10 | 0.10 | 85 | 1007.9 |
| 20260507021640 | 55 | 7 | 6.0 | 11.0 | 0.00 | 0.10 | 0.10 | 85 | 1008.0 |
| 20260507021345 | 56 | 351 | 3.0 | 10.0 | 0.00 | 0.10 | 0.10 | 85 | 1007.9 |
| 20260507021203 | 56 | 21 | 3.0 | 10.0 | 0.00 | 0.10 | 0.10 | 86 | 1007.8 |
| 20260507020833 | 56 | 360 | 5.0 | 11.0 | 0.00 | 0.10 | 0.10 | 86 | 1007.7 |
| 20260507020632 | 56 | 360 | 6.0 | 11.0 | 0.00 | 0.10 | 0.10 | 86 | 1007.8 |
| 20260507020343 | 56 | 322 | 4.0 | 13.0 | 0.00 | 0.10 | 0.10 | 86 | 1008.0 |
| 20260507020141 | 56 | 356 | 5.0 | 13.0 | 0.00 | 0.10 | 0.10 | 86 | 1007.9 |
| 20260507015851 | 56 | 5 | 4.0 | 13.0 | 0.00 | 0.10 | 0.10 | 87 | 1007.8 |
| 20260507015648 | 56 | 320 | 7.0 | 13.0 | 0.00 | 0.10 | 0.10 | 87 | 1007.8 |
| 20260507015338 | 57 | 322 | 5.0 | 12.0 | 0.01 | 0.10 | 0.10 | 88 | 1007.7 |
| 20260507015157 | 57 | 15 | 5.0 | 12.0 | 0.01 | 0.10 | 0.10 | 88 | 1007.7 |
| 20260507014846 | 57 | 2 | 5.0 | 12.0 | 0.04 | 0.10 | 0.10 | 89 | 1007.7 |
| 20260507014643 | 57 | 346 | 8.0 | 12.0 | 0.04 | 0.10 | 0.10 | 89 | 1007.7 |
| 20260507014334 | 58 | 7 | 5.0 | 13.0 | 0.04 | 0.10 | 0.10 | 90 | 1007.5 |
| 20260507014132 | 58 | 1 | 4.0 | 13.0 | 0.04 | 0.10 | 0.10 | 91 | 1007.4 |
| 20260507013844 | 58 | 351 | 5.0 | 13.0 | 0.04 | 0.10 | 0.10 | 91 | 1007.3 |
| 20260507013642 | 59 | 356 | 3.0 | 11.0 | 0.04 | 0.10 | 0.10 | 91 | 1007.4 |
| 20260507013334 | 59 | 2 | 5.0 | 11.0 | 0.04 | 0.10 | 0.10 | 91 | 1007.3 |
| 20260507013150 | 59 | 9 | 3.0 | 11.0 | 0.04 | 0.10 | 0.10 | 91 | 1007.3 |
| 20260507012842 | 59 | 19 | 4.0 | 11.0 | 0.04 | 0.10 | 0.10 | 91 | 1007.3 |
| 20260507012639 | 59 | 2 | 4.0 | 11.0 | 0.04 | 0.10 | 0.10 | 92 | 1007.3 |
| 20260507012330 | 60 | 46 | 3.0 | 10.0 | 0.04 | 0.10 | 0.10 | 92 | 1007.2 |
| 20260507012148 | 60 | 351 | 2.0 | 10.0 | 0.04 | 0.10 | 0.10 | 92 | 1007.2 |
| 20260507011840 | 60 | 7 | 4.0 | 10.0 | 0.04 | 0.10 | 0.10 | 92 | 1006.9 |
| 20260507011638 | 60 | 356 | 3.0 | 10.0 | 0.04 | 0.10 | 0.10 | 92 | 1007.0 |
| 20260507011343 | 60 | 356 | 3.0 | 8.0 | 0.04 | 0.10 | 0.10 | 92 | 1006.9 |
| 20260507011145 | 60 | 10 | 3.0 | 8.0 | 0.04 | 0.10 | 0.10 | 92 | 1006.8 |
| 20260507010833 | 61 | 30 | 1.0 | 6.0 | 0.04 | 0.10 | 0.10 | 92 | 1006.8 |
| 20260507010634 | 61 | 341 | 2.0 | 6.0 | 0.04 | 0.10 | 0.10 | 91 | 1006.8 |
| 20260507010341 | 61 | 4 | 2.0 | 7.0 | 0.04 | 0.10 | 0.10 | 91 | 1006.8 |
| 20260507010144 | 61 | 336 | 1.0 | 7.0 | 0.04 | 0.10 | 0.10 | 91 | 1006.9 |
| 20260507005831 | 61 | 3 | 1.0 | 14.0 | 0.04 | 0.10 | 0.10 | 91 | 1006.7 |
| 20260507005634 | 62 | 341 | 2.0 | 14.0 | 0.04 | 0.10 | 0.10 | 92 | 1006.7 |
| 20260507005339 | 62 | 2 | 2.0 | 14.0 | 0.03 | 0.09 | 0.09 | 92 | 1006.7 |
| 20260507005142 | 62 | 8 | 5.0 | 14.0 | 0.03 | 0.09 | 0.09 | 92 | 1006.6 |
| 20260507004850 | 62 | 346 | 4.0 | 8.0 | 0.00 | 0.06 | 0.06 | 92 | 1006.6 |
| 20260507004651 | 63 | 190 | 1.0 | 4.0 | 0.00 | 0.06 | 0.06 | 93 | 1006.5 |
| 20260507004338 | 63 | 191 | 0.0 | 0.0 | 0.00 | 0.06 | 0.06 | 93 | 1006.1 |
| 20260507004140 | 63 | 191 | 0.0 | 3.0 | 0.00 | 0.06 | 0.06 | 93 | 1006.1 |
| 20260507003846 | 63 | 191 | 0.0 | 3.0 | 0.00 | 0.06 | 0.06 | 93 | 1006.0 |
| 20260507003646 | 63 | 191 | 0.0 | 3.0 | 0.00 | 0.06 | 0.06 | 93 | 1005.9 |
| 20260507003333 | 63 | 191 | 1.0 | 4.0 | 0.00 | 0.06 | 0.06 | 92 | 1005.8 |
| 20260507003134 | 63 | 191 | 2.0 | 4.0 | 0.00 | 0.06 | 0.06 | 92 | 1005.8 |
| 20260507002902 | 63 | 191 | 2.0 | 5.0 | 0.00 | 0.06 | 0.06 | 92 | 1005.8 |
| 20260507002640 | 63 | 191 | 2.0 | 5.0 | 0.00 | 0.06 | 0.06 | 93 | 1005.8 |
| 20260507002350 | 63 | 191 | 2.0 | 5.0 | 0.00 | 0.06 | 0.06 | 93 | 1005.7 |
| 20260507002149 | 63 | 193 | 2.0 | 5.0 | 0.00 | 0.06 | 0.06 | 93 | 1005.8 |
| 20260507001840 | 63 | 192 | 3.0 | 5.0 | 0.00 | 0.06 | 0.06 | 93 | 1005.8 |
| 20260507001639 | 63 | 207 | 3.0 | 4.0 | 0.00 | 0.06 | 0.06 | 93 | 1005.9 |
| 20260507001408 | 63 | 212 | 2.0 | 5.0 | 0.00 | 0.06 | 0.06 | 93 | 1005.9 |
| 20260507001146 | 63 | 213 | 2.0 | 5.0 | 0.00 | 0.06 | 0.06 | 93 | 1006.0 |
| 20260507000836 | 63 | 214 | 2.0 | 5.0 | 0.00 | 0.06 | 0.06 | 93 | 1006.0 |
| 20260507000656 | 63 | 213 | 3.0 | 5.0 | 0.00 | 0.06 | 0.06 | 93 | 1006.0 |
| 20260507000346 | 63 | 220 | 2.0 | 5.0 | 0.00 | 0.06 | 0.06 | 93 | 1006.0 |
| 20260507000142 | 63 | 220 | 3.0 | 5.0 | 0.00 | 0.06 | 0.06 | 92 | 1005.9 |
| 20260506235832 | 63 | 212 | 3.0 | 5.0 | 0.00 | 0.06 | 0.06 | 92 | 1005.9 |
| 20260506235650 | 63 | 210 | 2.0 | 5.0 | 0.00 | 0.06 | 0.06 | 92 | 1005.9 |
| 20260506235340 | 63 | 210 | 2.0 | 5.0 | 0.00 | 0.06 | 0.06 | 92 | 1005.9 |
| 20260506235136 | 63 | 210 | 3.0 | 5.0 | 0.00 | 0.06 | 0.06 | 92 | 1005.9 |
| 20260506234843 | 63 | 208 | 2.0 | 4.0 | 0.00 | 0.06 | 0.06 | 93 | 1005.9 |
| 20260506234707 | 63 | 208 | 2.0 | 4.0 | 0.00 | 0.06 | 0.06 | 93 | 1005.8 |
| 20260506234333 | 63 | 237 | 2.0 | 4.0 | 0.00 | 0.06 | 0.06 | 93 | 1005.7 |
| 20260506234135 | 63 | 237 | 2.0 | 4.0 | 0.00 | 0.06 | 0.06 | 92 | 1005.7 |
| 20260506233842 | 63 | 239 | 2.0 | 5.0 | 0.00 | 0.06 | 0.06 | 92 | 1005.6 |
| 20260506233644 | 63 | 239 | 2.0 | 5.0 | 0.00 | 0.06 | 0.06 | 92 | 1005.6 |
| 20260506233411 | 63 | 243 | 2.0 | 5.0 | 0.00 | 0.06 | 0.06 | 92 | 1005.6 |
| 20260506233132 | 63 | 243 | 3.0 | 5.0 | 0.00 | 0.06 | 0.06 | 92 | 1005.6 |
| 20260506232840 | 63 | 206 | 3.0 | 5.0 | 0.00 | 0.06 | 0.06 | 92 | 1005.6 |
| 20260506232642 | 63 | 229 | 4.0 | 5.0 | 0.00 | 0.06 | 0.06 | 92 | 1005.7 |
| 20260506232348 | 63 | 204 | 2.0 | 6.0 | 0.00 | 0.06 | 0.06 | 92 | 1005.7 |
| 20260506232146 | 63 | 204 | 3.0 | 6.0 | 0.00 | 0.06 | 0.06 | 92 | 1005.6 |
| 20260506231835 | 63 | 202 | 3.0 | 6.0 | 0.00 | 0.06 | 0.06 | 92 | 1005.7 |
| 20260506231655 | 63 | 193 | 3.0 | 9.0 | 0.00 | 0.06 | 0.06 | 92 | 1005.7 |
| 20260506231343 | 63 | 218 | 3.0 | 9.0 | 0.00 | 0.06 | 0.06 | 92 | 1005.7 |
| 20260506231140 | 63 | 223 | 4.0 | 9.0 | 0.00 | 0.06 | 0.06 | 92 | 1005.7 |
| 20260506230831 | 63 | 229 | 4.0 | 7.0 | 0.00 | 0.06 | 0.06 | 92 | 1005.7 |
| 20260506230649 | 63 | 218 | 4.0 | 7.0 | 0.00 | 0.06 | 0.06 | 92 | 1005.8 |
| 20260506230341 | 63 | 240 | 3.0 | 6.0 | 0.00 | 0.06 | 0.06 | 92 | 1005.7 |
| 20260506230140 | 63 | 231 | 3.0 | 6.0 | 0.00 | 0.06 | 0.06 | 93 | 1005.8 |
| 20260506225831 | 63 | 198 | 4.0 | 6.0 | 0.00 | 0.06 | 0.06 | 92 | 1005.8 |
| 20260506225648 | 63 | 208 | 2.0 | 7.0 | 0.00 | 0.06 | 0.06 | 92 | 1005.8 |
| 20260506225359 | 63 | 216 | 3.0 | 8.0 | 0.00 | 0.06 | 0.06 | 92 | 1005.7 |
| 20260506225137 | 63 | 216 | 3.0 | 8.0 | 0.00 | 0.06 | 0.06 | 92 | 1005.7 |
| 20260506224846 | 63 | 225 | 5.0 | 8.0 | 0.00 | 0.06 | 0.06 | 92 | 1005.6 |
| 20260506224645 | 63 | 219 | 4.0 | 8.0 | 0.00 | 0.06 | 0.06 | 92 | 1005.6 |
| 20260506224336 | 63 | 219 | 5.0 | 8.0 | 0.00 | 0.06 | 0.06 | 92 | 1005.6 |
| 20260506224135 | 63 | 218 | 4.0 | 7.0 | 0.00 | 0.06 | 0.06 | 92 | 1005.6 |
| 20260506223846 | 63 | 233 | 4.0 | 7.0 | 0.00 | 0.06 | 0.06 | 91 | 1005.6 |
| 20260506223643 | 63 | 220 | 4.0 | 7.0 | 0.00 | 0.06 | 0.06 | 92 | 1005.6 |
| 20260506223334 | 63 | 216 | 4.0 | 8.0 | 0.00 | 0.06 | 0.06 | 91 | 1005.6 |
| 20260506223132 | 63 | 215 | 4.0 | 8.0 | 0.00 | 0.06 | 0.06 | 91 | 1005.6 |
| 20260506222858 | 63 | 207 | 5.0 | 9.0 | 0.00 | 0.06 | 0.06 | 91 | 1005.6 |
| 20260506222639 | 64 | 208 | 3.0 | 9.0 | 0.00 | 0.06 | 0.06 | 91 | 1005.6 |
| 20260506222346 | 64 | 206 | 4.0 | 9.0 | 0.00 | 0.06 | 0.06 | 92 | 1005.5 |
| 20260506222209 | 63 | 188 | 5.0 | 9.0 | 0.00 | 0.06 | 0.06 | 91 | 1005.6 |
| 20260506221835 | 63 | 231 | 4.0 | 7.0 | 0.00 | 0.06 | 0.06 | 91 | 1005.5 |
| 20260506221637 | 63 | 193 | 3.0 | 7.0 | 0.00 | 0.06 | 0.06 | 91 | 1005.5 |
| 20260506221339 | 63 | 202 | 3.0 | 6.0 | 0.00 | 0.06 | 0.06 | 91 | 1005.5 |
| 20260506221140 | 63 | 216 | 3.0 | 7.0 | 0.00 | 0.06 | 0.06 | 92 | 1005.5 |
| 20260506220846 | 63 | 202 | 4.0 | 8.0 | 0.00 | 0.06 | 0.06 | 91 | 1005.5 |
| 20260506220644 | 63 | 227 | 4.0 | 8.0 | 0.00 | 0.06 | 0.06 | 92 | 1005.4 |
| 20260506220335 | 63 | 170 | 5.0 | 8.0 | 0.00 | 0.06 | 0.06 | 92 | 1005.3 |
| 20260506220131 | 63 | 221 | 3.0 | 8.0 | 0.00 | 0.06 | 0.06 | 92 | 1005.3 |
| 20260506215842 | 63 | 211 | 4.0 | 8.0 | 0.00 | 0.06 | 0.06 | 92 | 1005.2 |
| 20260506215639 | 63 | 220 | 2.0 | 6.0 | 0.00 | 0.06 | 0.06 | 92 | 1005.2 |
| 20260506215350 | 63 | 219 | 4.0 | 6.0 | 0.00 | 0.06 | 0.06 | 92 | 1005.2 |
| 20260506215148 | 63 | 215 | 3.0 | 6.0 | 0.00 | 0.06 | 0.06 | 92 | 1005.3 |
| 20260506214840 | 63 | 207 | 2.0 | 6.0 | 0.00 | 0.06 | 0.06 | 93 | 1005.2 |
| 20260506214638 | 63 | 226 | 2.0 | 5.0 | 0.00 | 0.06 | 0.06 | 92 | 1005.2 |
| 20260506214348 | 63 | 218 | 3.0 | 7.0 | 0.00 | 0.06 | 0.06 | 92 | 1005.2 |
| 20260506214146 | 63 | 236 | 3.0 | 7.0 | 0.00 | 0.06 | 0.06 | 92 | 1005.3 |
| 20260506213837 | 63 | 234 | 3.0 | 7.0 | 0.00 | 0.06 | 0.06 | 92 | 1005.4 |
| 20260506213657 | 63 | 229 | 2.0 | 6.0 | 0.00 | 0.06 | 0.06 | 92 | 1005.3 |
| 20260506213347 | 63 | 218 | 3.0 | 6.0 | 0.00 | 0.06 | 0.06 | 92 | 1005.2 |
| 20260506213145 | 63 | 214 | 3.0 | 6.0 | 0.00 | 0.06 | 0.06 | 92 | 1005.2 |
| 20260506212836 | 63 | 197 | 3.0 | 6.0 | 0.00 | 0.06 | 0.06 | 92 | 1005.2 |
| 20260506212635 | 63 | 210 | 4.0 | 6.0 | 0.00 | 0.06 | 0.06 | 92 | 1005.2 |
| 20260506212346 | 63 | 200 | 3.0 | 9.0 | 0.00 | 0.06 | 0.06 | 92 | 1005.2 |
| 20260506212143 | 63 | 196 | 3.0 | 9.0 | 0.00 | 0.06 | 0.06 | 92 | 1005.2 |
| 20260506211834 | 63 | 220 | 5.0 | 9.0 | 0.00 | 0.06 | 0.06 | 92 | 1005.2 |
| 20260506211653 | 63 | 231 | 6.0 | 9.0 | 0.00 | 0.06 | 0.06 | 92 | 1005.2 |
| 20260506211357 | 63 | 241 | 2.0 | 8.0 | 0.00 | 0.06 | 0.06 | 93 | 1005.2 |
| 20260506211131 | 63 | 242 | 4.0 | 8.0 | 0.00 | 0.06 | 0.06 | 93 | 1005.1 |
| 20260506210838 | 63 | 233 | 5.0 | 8.0 | 0.00 | 0.06 | 0.06 | 93 | 1005.1 |
| 20260506210642 | 63 | 221 | 4.0 | 8.0 | 0.00 | 0.06 | 0.06 | 93 | 1005.1 |
| 20260506210348 | 63 | 196 | 3.0 | 9.0 | 0.00 | 0.06 | 0.06 | 93 | 1005.1 |
| 20260506210149 | 63 | 228 | 4.0 | 9.0 | 0.00 | 0.06 | 0.06 | 93 | 1005.0 |
| 20260506205836 | 63 | 200 | 5.0 | 9.0 | 0.00 | 0.06 | 0.06 | 93 | 1004.9 |
| 20260506205638 | 63 | 218 | 5.0 | 11.0 | 0.00 | 0.06 | 0.06 | 93 | 1004.9 |
| 20260506205344 | 63 | 223 | 4.0 | 11.0 | 0.00 | 0.06 | 0.06 | 93 | 1004.8 |
| 20260506205146 | 62 | 192 | 4.0 | 11.0 | 0.00 | 0.06 | 0.06 | 93 | 1004.8 |
| 20260506204832 | 63 | 258 | 4.0 | 9.0 | 0.00 | 0.06 | 0.06 | 93 | 1004.9 |
| 20260506204635 | 62 | 202 | 4.0 | 9.0 | 0.00 | 0.06 | 0.06 | 93 | 1004.9 |
| 20260506204342 | 62 | 229 | 5.0 | 10.0 | 0.00 | 0.06 | 0.06 | 93 | 1004.9 |
| 20260506204144 | 62 | 182 | 5.0 | 10.0 | 0.00 | 0.06 | 0.06 | 93 | 1004.9 |
| 20260506203831 | 62 | 208 | 3.0 | 10.0 | 0.00 | 0.06 | 0.06 | 94 | 1004.9 |
| 20260506203635 | 62 | 207 | 6.0 | 12.0 | 0.00 | 0.06 | 0.06 | 93 | 1004.9 |
| 20260506203342 | 62 | 238 | 4.0 | 14.0 | 0.00 | 0.06 | 0.06 | 94 | 1004.9 |
| 20260506203139 | 62 | 198 | 5.0 | 14.0 | 0.00 | 0.06 | 0.06 | 94 | 1004.9 |
| 20260506202849 | 62 | 207 | 8.0 | 14.0 | 0.00 | 0.06 | 0.06 | 94 | 1004.8 |
| 20260506202648 | 62 | 235 | 7.0 | 10.0 | 0.00 | 0.06 | 0.06 | 94 | 1004.8 |
| 20260506202357 | 62 | 207 | 4.0 | 10.0 | 0.00 | 0.06 | 0.06 | 94 | 1004.8 |
| 20260506202134 | 62 | 212 | 6.0 | 10.0 | 0.01 | 0.06 | 0.06 | 94 | 1004.8 |
| 20260506201845 | 62 | 219 | 6.0 | 9.0 | 0.01 | 0.06 | 0.06 | 94 | 1004.8 |
| 20260506201703 | 62 | 224 | 5.0 | 9.0 | 0.01 | 0.06 | 0.06 | 94 | 1004.8 |
| 20260506201350 | 62 | 224 | 5.0 | 14.0 | 0.01 | 0.06 | 0.06 | 94 | 1004.9 |
| 20260506201209 | 62 | 219 | 5.0 | 14.0 | 0.01 | 0.06 | 0.06 | 94 | 1004.9 |
| 20260506200838 | 62 | 155 | 4.0 | 14.0 | 0.01 | 0.06 | 0.06 | 94 | 1004.9 |
| 20260506200636 | 62 | 208 | 6.0 | 14.0 | 0.01 | 0.06 | 0.06 | 94 | 1005.0 |
| 20260506200346 | 62 | 224 | 5.0 | 11.0 | 0.02 | 0.06 | 0.06 | 94 | 1004.9 |
| 20260506200143 | 62 | 202 | 5.0 | 11.0 | 0.02 | 0.06 | 0.06 | 94 | 1005.0 |
| 20260506195835 | 62 | 218 | 7.0 | 11.0 | 0.02 | 0.06 | 0.06 | 94 | 1005.0 |
| 20260506195633 | 62 | 252 | 6.0 | 11.0 | 0.02 | 0.06 | 0.06 | 94 | 1005.0 |
| 20260506195340 | 62 | 196 | 4.0 | 9.0 | 0.02 | 0.06 | 0.06 | 94 | 1005.0 |
| 20260506194910 | 62 | 214 | 5.0 | 9.0 | 0.02 | 0.06 | 0.06 | 94 | 1005.3 |
| 20260506194649 | 62 | 215 | 4.0 | 9.0 | 0.02 | 0.06 | 0.06 | 95 | 1005.3 |
| 20260506194336 | 62 | 212 | 4.0 | 12.0 | 0.02 | 0.06 | 0.06 | 94 | 1005.4 |
| 20260506194200 | 62 | 227 | 5.0 | 12.0 | 0.02 | 0.06 | 0.06 | 94 | 1005.5 |
| 20260506193846 | 62 | 203 | 5.0 | 12.0 | 0.02 | 0.06 | 0.06 | 94 | 1005.5 |
| 20260506193648 | 62 | 210 | 6.0 | 12.0 | 0.02 | 0.06 | 0.06 | 94 | 1005.6 |
| 20260506193336 | 62 | 203 | 5.0 | 12.0 | 0.02 | 0.06 | 0.06 | 94 | 1005.6 |
| 20260506193137 | 62 | 259 | 6.0 | 15.0 | 0.02 | 0.06 | 0.06 | 94 | 1005.7 |
| 20260506192844 | 62 | 246 | 5.0 | 15.0 | 0.02 | 0.06 | 0.06 | 93 | 1005.7 |
| 20260506192703 | 62 | 193 | 7.0 | 15.0 | 0.02 | 0.06 | 0.06 | 93 | 1005.7 |
| 20260506192333 | 62 | 216 | 7.0 | 15.0 | 0.02 | 0.06 | 0.06 | 93 | 1005.7 |
| 20260506192131 | 62 | 225 | 4.0 | 14.0 | 0.01 | 0.05 | 0.05 | 93 | 1005.7 |
| 20260506191841 | 62 | 235 | 5.0 | 14.0 | 0.01 | 0.05 | 0.05 | 93 | 1005.7 |
| 20260506191640 | 62 | 231 | 5.0 | 14.0 | 0.01 | 0.05 | 0.05 | 93 | 1005.7 |
| 20260506191349 | 62 | 180 | 6.0 | 14.0 | 0.01 | 0.05 | 0.05 | 92 | 1005.7 |
| 20260506191145 | 62 | 240 | 4.0 | 14.0 | 0.01 | 0.05 | 0.05 | 92 | 1005.7 |
| 20260506190836 | 63 | 229 | 5.0 | 10.0 | 0.01 | 0.05 | 0.05 | 92 | 1005.7 |
| 20260506190654 | 63 | 214 | 4.0 | 10.0 | 0.01 | 0.05 | 0.05 | 92 | 1005.7 |
| 20260506190405 | 63 | 229 | 5.0 | 10.0 | 0.00 | 0.04 | 0.04 | 91 | 1005.7 |
| 20260506190141 | 63 | 218 | 4.0 | 11.0 | 0.00 | 0.04 | 0.04 | 91 | 1005.7 |
| 20260506185831 | 63 | 232 | 6.0 | 11.0 | 0.00 | 0.04 | 0.04 | 91 | 1005.8 |
| 20260506185648 | 63 | 208 | 6.0 | 11.0 | 0.00 | 0.04 | 0.04 | 90 | 1005.8 |
| 20260506185359 | 63 | 252 | 4.0 | 12.0 | 0.00 | 0.04 | 0.04 | 90 | 1005.8 |
| 20260506185137 | 63 | 196 | 4.0 | 12.0 | 0.00 | 0.04 | 0.04 | 90 | 1005.8 |
| 20260506184904 | 63 | 232 | 6.0 | 12.0 | 0.00 | 0.04 | 0.04 | 90 | 1005.8 |
| 20260506184706 | 63 | 184 | 5.0 | 9.0 | 0.00 | 0.04 | 0.04 | 90 | 1005.8 |
| 20260506184353 | 63 | 241 | 4.0 | 9.0 | 0.00 | 0.04 | 0.04 | 90 | 1005.9 |
| 20260506184134 | 63 | 223 | 4.0 | 10.0 | 0.00 | 0.04 | 0.04 | 90 | 1005.9 |
| 20260506183840 | 63 | 198 | 6.0 | 10.0 | 0.00 | 0.04 | 0.04 | 90 | 1005.9 |
| 20260506183700 | 63 | 245 | 5.0 | 10.0 | 0.00 | 0.04 | 0.04 | 90 | 1005.9 |
| 20260506183349 | 63 | 252 | 7.0 | 10.0 | 0.00 | 0.04 | 0.04 | 90 | 1005.9 |
| 20260506183207 | 63 | 250 | 5.0 | 9.0 | 0.00 | 0.04 | 0.04 | 90 | 1005.9 |
| 20260506182836 | 64 | 211 | 4.0 | 9.0 | 0.00 | 0.04 | 0.04 | 90 | 1005.8 |
| 20260506182634 | 64 | 214 | 4.0 | 9.0 | 0.00 | 0.04 | 0.04 | 90 | 1005.9 |
| 20260506182344 | 64 | 211 | 4.0 | 7.0 | 0.00 | 0.04 | 0.04 | 90 | 1006.0 |
| 20260506182141 | 64 | 202 | 5.0 | 7.0 | 0.00 | 0.04 | 0.04 | 89 | 1006.0 |
| 20260506181832 | 64 | 213 | 3.0 | 7.0 | 0.00 | 0.04 | 0.04 | 90 | 1005.9 |
| 20260506181648 | 64 | 221 | 4.0 | 10.0 | 0.00 | 0.04 | 0.04 | 89 | 1006.0 |
| 20260506181338 | 64 | 204 | 4.0 | 16.0 | 0.00 | 0.04 | 0.04 | 89 | 1006.0 |
| 20260506181135 | 64 | 202 | 4.0 | 16.0 | 0.00 | 0.04 | 0.04 | 89 | 1006.0 |
| 20260506180906 | 64 | 214 | 8.0 | 16.0 | 0.00 | 0.04 | 0.04 | 89 | 1006.0 |
| 20260506180643 | 64 | 260 | 7.0 | 16.0 | 0.00 | 0.04 | 0.04 | 89 | 1006.1 |
| 20260506180334 | 64 | 231 | 6.0 | 16.0 | 0.00 | 0.04 | 0.04 | 89 | 1006.0 |
| 20260506180132 | 64 | 237 | 6.0 | 16.0 | 0.00 | 0.04 | 0.04 | 89 | 1006.1 |
| 20260506175843 | 64 | 185 | 8.0 | 17.0 | 0.01 | 0.04 | 0.04 | 89 | 1006.1 |
| 20260506175644 | 64 | 199 | 5.0 | 18.0 | 0.01 | 0.04 | 0.04 | 89 | 1006.2 |
| 20260506175334 | 64 | 212 | 8.0 | 18.0 | 0.01 | 0.04 | 0.04 | 89 | 1006.3 |
| 20260506175133 | 64 | 228 | 6.0 | 18.0 | 0.01 | 0.04 | 0.04 | 90 | 1006.3 |
| 20260506174840 | 64 | 177 | 10.0 | 18.0 | 0.01 | 0.04 | 0.04 | 89 | 1006.4 |
| 20260506174647 | 64 | 233 | 7.0 | 11.0 | 0.01 | 0.04 | 0.04 | 90 | 1006.3 |
| 20260506174352 | 64 | 180 | 6.0 | 10.0 | 0.01 | 0.04 | 0.04 | 91 | 1006.2 |
| 20260506174134 | 64 | 229 | 4.0 | 10.0 | 0.01 | 0.04 | 0.04 | 91 | 1006.1 |
| 20260506173840 | 64 | 235 | 5.0 | 10.0 | 0.01 | 0.04 | 0.04 | 91 | 1006.2 |
| 20260506173643 | 64 | 196 | 5.0 | 9.0 | 0.01 | 0.04 | 0.04 | 91 | 1006.2 |
| 20260506173350 | 64 | 207 | 4.0 | 9.0 | 0.02 | 0.04 | 0.04 | 91 | 1006.2 |
| 20260506173131 | 64 | 199 | 5.0 | 9.0 | 0.02 | 0.04 | 0.04 | 91 | 1006.2 |
| 20260506172837 | 64 | 239 | 4.0 | 8.0 | 0.02 | 0.04 | 0.04 | 91 | 1006.2 |
| 20260506172639 | 64 | 196 | 4.0 | 7.0 | 0.02 | 0.04 | 0.04 | 91 | 1006.2 |
| 20260506172346 | 64 | 198 | 4.0 | 11.0 | 0.02 | 0.04 | 0.04 | 91 | 1006.2 |
| 20260506172143 | 64 | 191 | 3.0 | 11.0 | 0.03 | 0.04 | 0.04 | 91 | 1006.2 |
| 20260506171834 | 63 | 171 | 6.0 | 11.0 | 0.03 | 0.04 | 0.04 | 91 | 1006.2 |
| 20260506171633 | 63 | 235 | 4.0 | 8.0 | 0.03 | 0.04 | 0.04 | 91 | 1006.2 |
| 20260506171403 | 63 | 199 | 3.0 | 10.0 | 0.03 | 0.04 | 0.04 | 91 | 1006.0 |
| 20260506171139 | 63 | 191 | 3.0 | 10.0 | 0.04 | 0.04 | 0.04 | 90 | 1006.1 |
| 20260506170849 | 63 | 201 | 5.0 | 10.0 | 0.04 | 0.04 | 0.04 | 90 | 1006.1 |
| 20260506170646 | 63 | 222 | 4.0 | 10.0 | 0.04 | 0.04 | 0.04 | 90 | 1006.1 |
| 20260506170339 | 63 | 186 | 5.0 | 10.0 | 0.04 | 0.04 | 0.04 | 90 | 1006.2 |
| 20260506170135 | 63 | 197 | 6.0 | 10.0 | 0.04 | 0.04 | 0.04 | 90 | 1006.2 |
| 20260506165846 | 63 | 198 | 5.0 | 10.0 | 0.03 | 0.03 | 0.03 | 90 | 1006.2 |
| 20260506165643 | 63 | 193 | 6.0 | 11.0 | 0.03 | 0.03 | 0.03 | 90 | 1006.2 |
| 20260506165334 | 63 | 183 | 5.0 | 11.0 | 0.03 | 0.03 | 0.03 | 90 | 1006.4 |
| 20260506165133 | 63 | 202 | 5.0 | 11.0 | 0.03 | 0.03 | 0.03 | 89 | 1006.4 |
| 20260506164843 | 63 | 215 | 5.0 | 14.0 | 0.03 | 0.03 | 0.03 | 89 | 1006.5 |
| 20260506164703 | 63 | 220 | 6.0 | 14.0 | 0.03 | 0.03 | 0.03 | 89 | 1006.6 |
| 20260506164333 | 63 | 211 | 7.0 | 15.0 | 0.03 | 0.03 | 0.03 | 88 | 1006.6 |
| 20260506164131 | 64 | 223 | 7.0 | 15.0 | 0.03 | 0.03 | 0.03 | 88 | 1006.7 |
| 20260506163843 | 64 | 206 | 6.0 | 15.0 | 0.03 | 0.03 | 0.03 | 88 | 1006.6 |
| 20260506163641 | 64 | 202 | 10.0 | 15.0 | 0.03 | 0.03 | 0.03 | 88 | 1006.7 |
| 20260506163346 | 64 | 219 | 6.0 | 16.0 | 0.02 | 0.02 | 0.02 | 88 | 1006.8 |
| 20260506163147 | 64 | 203 | 6.0 | 16.0 | 0.02 | 0.02 | 0.02 | 87 | 1006.8 |
| 20260506162834 | 64 | 183 | 5.0 | 11.0 | 0.02 | 0.02 | 0.02 | 88 | 1006.9 |
| 20260506162635 | 64 | 204 | 3.0 | 11.0 | 0.02 | 0.02 | 0.02 | 87 | 1007.0 |
| 20260506162402 | 64 | 233 | 6.0 | 11.0 | 0.02 | 0.02 | 0.02 | 86 | 1007.1 |
| 20260506162142 | 65 | 196 | 4.0 | 8.0 | 0.01 | 0.01 | 0.01 | 86 | 1007.0 |
| 20260506161849 | 65 | 183 | 5.0 | 10.0 | 0.01 | 0.01 | 0.01 | 85 | 1007.0 |
| 20260506161650 | 65 | 189 | 5.0 | 10.0 | 0.01 | 0.01 | 0.01 | 85 | 1007.0 |
| 20260506161355 | 65 | 196 | 4.0 | 10.0 | 0.01 | 0.01 | 0.01 | 85 | 1006.9 |
| 20260506161136 | 65 | 218 | 5.0 | 11.0 | 0.00 | 0.00 | 0.00 | 84 | 1007.1 |
| 20260506160842 | 65 | 260 | 7.0 | 11.0 | 0.00 | 0.00 | 0.00 | 84 | 1007.3 |
| 20260506160640 | 65 | 227 | 4.0 | 9.0 | 0.00 | 0.00 | 0.00 | 84 | 1007.4 |
| 20260506160331 | 65 | 193 | 6.0 | 9.0 | 0.00 | 0.00 | 0.00 | 84 | 1007.5 |
| 20260506160150 | 66 | 225 | 4.0 | 9.0 | 0.00 | 0.00 | 0.00 | 84 | 1007.5 |
| 20260506155842 | 66 | 211 | 5.0 | 10.0 | 0.00 | 0.00 | 0.00 | 83 | 1007.5 |
| 20260506155701 | 66 | 208 | 4.0 | 10.0 | 0.00 | 0.00 | 0.00 | 83 | 1007.5 |
| 20260506155349 | 66 | 205 | 6.0 | 12.0 | 0.00 | 0.00 | 0.00 | 82 | 1007.6 |
| 20260506155209 | 66 | 210 | 5.0 | 12.0 | 0.00 | 0.00 | 0.00 | 82 | 1007.6 |
| 20260506154838 | 67 | 222 | 6.0 | 12.0 | 0.00 | 0.00 | 0.00 | 81 | 1007.5 |
| 20260506154635 | 67 | 189 | 5.0 | 10.0 | 0.00 | 0.00 | 0.00 | 80 | 1007.4 |
| 20260506154406 | 67 | 195 | 6.0 | 10.0 | 0.00 | 0.00 | 0.00 | 80 | 1007.3 |
| 20260506154142 | 67 | 207 | 4.0 | 11.0 | 0.00 | 0.00 | 0.00 | 80 | 1007.3 |
| 20260506153834 | 67 | 228 | 6.0 | 11.0 | 0.00 | 0.00 | 0.00 | 79 | 1007.3 |
| 20260506153633 | 67 | 223 | 7.0 | 11.0 | 0.00 | 0.00 | 0.00 | 78 | 1007.2 |
| 20260506153343 | 67 | 209 | 5.0 | 12.0 | 0.00 | 0.00 | 0.00 | 79 | 1007.2 |
| 20260506153140 | 67 | 220 | 6.0 | 12.0 | 0.00 | 0.00 | 0.00 | 77 | 1007.3 |
| 20260506152831 | 67 | 216 | 7.0 | 14.0 | 0.00 | 0.00 | 0.00 | 77 | 1007.3 |
| 20260506152648 | 67 | 102 | 5.0 | 14.0 | 0.00 | 0.00 | 0.00 | 76 | 1007.2 |
| 20260506152334 | 68 | 237 | 6.0 | 14.0 | 0.00 | 0.00 | 0.00 | 75 | 1007.2 |
| 20260506152136 | 68 | 245 | 9.0 | 14.0 | 0.00 | 0.00 | 0.00 | 74 | 1007.3 |
| 20260506151843 | 68 | 223 | 8.0 | 14.0 | 0.00 | 0.00 | 0.00 | 74 | 1007.4 |
| 20260506151645 | 68 | 200 | 9.0 | 14.0 | 0.00 | 0.00 | 0.00 | 74 | 1007.4 |
| 20260506151351 | 68 | 199 | 7.0 | 16.0 | 0.00 | 0.00 | 0.00 | 74 | 1007.5 |
| 20260506151131 | 68 | 238 | 7.0 | 15.0 | 0.00 | 0.00 | 0.00 | 74 | 1007.5 |
| 20260506150838 | 68 | 238 | 9.0 | 16.0 | 0.00 | 0.00 | 0.00 | 73 | 1007.7 |
| 20260506150638 | 68 | 181 | 8.0 | 16.0 | 0.00 | 0.00 | 0.00 | 73 | 1007.7 |
| 20260506150344 | 68 | 208 | 7.0 | 16.0 | 0.00 | 0.00 | 0.00 | 73 | 1007.7 |
| 20260506150148 | 68 | 225 | 8.0 | 16.0 | 0.00 | 0.00 | 0.00 | 73 | 1007.6 |
| 20260506145855 | 68 | 210 | 8.0 | 16.0 | 0.00 | 0.00 | 0.00 | 73 | 1007.6 |
| 20260506145635 | 68 | 229 | 6.0 | 16.0 | 0.00 | 0.00 | 0.00 | 73 | 1007.5 |
| 20260506145342 | 68 | 250 | 10.0 | 16.0 | 0.00 | 0.00 | 0.00 | 73 | 1007.6 |
| 20260506145141 | 68 | 204 | 9.0 | 13.0 | 0.00 | 0.00 | 0.00 | 73 | 1007.7 |
| 20260506144831 | 68 | 204 | 4.0 | 10.0 | 0.00 | 0.00 | 0.00 | 73 | 1007.5 |
| 20260506144649 | 68 | 248 | 4.0 | 10.0 | 0.00 | 0.00 | 0.00 | 73 | 1007.4 |
| 20260506144339 | 68 | 229 | 5.0 | 12.0 | 0.00 | 0.00 | 0.00 | 73 | 1007.6 |
| 20260506144138 | 68 | 198 | 7.0 | 12.0 | 0.00 | 0.00 | 0.00 | 73 | 1007.7 |
| 20260506143850 | 68 | 223 | 6.0 | 16.0 | 0.00 | 0.00 | 0.00 | 73 | 1007.6 |
| 20260506143648 | 68 | 210 | 7.0 | 16.0 | 0.00 | 0.00 | 0.00 | 73 | 1007.6 |
| 20260506143338 | 68 | 224 | 8.0 | 16.0 | 0.00 | 0.00 | 0.00 | 73 | 1007.5 |
| 20260506143156 | 68 | 254 | 9.0 | 16.0 | 0.00 | 0.00 | 0.00 | 73 | 1007.4 |
| 20260506142907 | 68 | 244 | 5.0 | 16.0 | 0.00 | 0.00 | 0.00 | 74 | 1007.4 |
| 20260506142644 | 68 | 226 | 8.0 | 16.0 | 0.00 | 0.00 | 0.00 | 73 | 1007.4 |
| 20260506142354 | 68 | 282 | 7.0 | 12.0 | 0.00 | 0.00 | 0.00 | 74 | 1007.5 |
| 20260506142150 | 68 | 217 | 8.0 | 12.0 | 0.00 | 0.00 | 0.00 | 73 | 1007.5 |
| 20260506141842 | 68 | 243 | 7.0 | 13.0 | 0.00 | 0.00 | 0.00 | 74 | 1007.5 |
| 20260506141639 | 68 | 202 | 4.0 | 16.0 | 0.00 | 0.00 | 0.00 | 74 | 1007.5 |
| 20260506141348 | 68 | 220 | 7.0 | 16.0 | 0.00 | 0.00 | 0.00 | 73 | 1007.5 |
| 20260506141207 | 68 | 217 | 5.0 | 16.0 | 0.00 | 0.00 | 0.00 | 73 | 1007.5 |
| 20260506140852 | 68 | 203 | 8.0 | 14.0 | 0.00 | 0.00 | 0.00 | 73 | 1007.5 |
| 20260506140634 | 68 | 203 | 7.0 | 16.0 | 0.00 | 0.00 | 0.00 | 73 | 1007.5 |
| 20260506140341 | 68 | 191 | 6.0 | 16.0 | 0.00 | 0.00 | 0.00 | 74 | 1007.5 |
| 20260506140204 | 68 | 204 | 5.0 | 12.0 | 0.00 | 0.00 | 0.00 | 74 | 1007.5 |
| 20260506135850 | 68 | 258 | 5.0 | 12.0 | 0.00 | 0.00 | 0.00 | 74 | 1007.5 |
| 20260506135631 | 68 | 233 | 8.0 | 18.0 | 0.00 | 0.00 | 0.00 | 74 | 1007.6 |
| 20260506135359 | 68 | 243 | 7.0 | 18.0 | 0.00 | 0.00 | 0.00 | 74 | 1007.6 |
| 20260506135136 | 68 | 238 | 8.0 | 18.0 | 0.00 | 0.00 | 0.00 | 74 | 1007.7 |
| 20260506134847 | 68 | 181 | 7.0 | 17.0 | 0.00 | 0.00 | 0.00 | 74 | 1007.8 |
| 20260506134646 | 68 | 200 | 7.0 | 17.0 | 0.00 | 0.00 | 0.00 | 74 | 1007.7 |
| 20260506134337 | 68 | 246 | 8.0 | 12.0 | 0.00 | 0.00 | 0.00 | 75 | 1007.7 |
| 20260506134134 | 68 | 217 | 6.0 | 13.0 | 0.00 | 0.00 | 0.00 | 75 | 1007.7 |
| 20260506133906 | 67 | 214 | 6.0 | 13.0 | 0.00 | 0.00 | 0.00 | 75 | 1007.8 |
| 20260506133643 | 67 | 206 | 5.0 | 13.0 | 0.00 | 0.00 | 0.00 | 75 | 1007.8 |
| 20260506133334 | 67 | 176 | 7.0 | 12.0 | 0.00 | 0.00 | 0.00 | 76 | 1007.9 |
| 20260506133152 | 67 | 212 | 4.0 | 12.0 | 0.00 | 0.00 | 0.00 | 76 | 1007.9 |
| 20260506132904 | 67 | 202 | 6.0 | 13.0 | 0.00 | 0.00 | 0.00 | 76 | 1007.8 |
| 20260506132642 | 67 | 234 | 7.0 | 13.0 | 0.00 | 0.00 | 0.00 | 76 | 1007.7 |
| 20260506132334 | 67 | 165 | 6.0 | 13.0 | 0.00 | 0.00 | 0.00 | 76 | 1007.5 |
| 20260506132151 | 67 | 175 | 8.0 | 15.0 | 0.00 | 0.00 | 0.00 | 76 | 1007.5 |
| 20260506131842 | 67 | 235 | 7.0 | 15.0 | 0.00 | 0.00 | 0.00 | 76 | 1007.7 |
| 20260506131639 | 67 | 243 | 7.0 | 15.0 | 0.00 | 0.00 | 0.00 | 76 | 1007.8 |
| 20260506131348 | 67 | 212 | 8.0 | 15.0 | 0.00 | 0.00 | 0.00 | 76 | 1007.9 |
| 20260506131147 | 67 | 223 | 6.0 | 12.0 | 0.00 | 0.00 | 0.00 | 77 | 1007.8 |
| 20260506130839 | 67 | 221 | 8.0 | 14.0 | 0.00 | 0.00 | 0.00 | 77 | 1007.7 |
| 20260506130659 | 67 | 211 | 6.0 | 14.0 | 0.00 | 0.00 | 0.00 | 77 | 1007.8 |
| 20260506130344 | 67 | 209 | 7.0 | 14.0 | 0.00 | 0.00 | 0.00 | 77 | 1007.8 |
| 20260506130145 | 67 | 222 | 6.0 | 15.0 | 0.00 | 0.00 | 0.00 | 77 | 1007.8 |
| 20260506125833 | 67 | 245 | 4.0 | 11.0 | 0.00 | 0.00 | 0.00 | 77 | 1007.7 |
| 20260506125635 | 67 | 237 | 7.0 | 11.0 | 0.00 | 0.00 | 0.00 | 77 | 1007.7 |
| 20260506125343 | 67 | 191 | 5.0 | 14.0 | 0.00 | 0.00 | 0.00 | 77 | 1007.5 |
| 20260506125144 | 67 | 204 | 4.0 | 14.0 | 0.00 | 0.00 | 0.00 | 77 | 1007.5 |
| 20260506124911 | 67 | 233 | 8.0 | 14.0 | 0.00 | 0.00 | 0.00 | 77 | 1007.4 |
| 20260506124632 | 67 | 198 | 6.0 | 14.0 | 0.00 | 0.00 | 0.00 | 77 | 1007.5 |
| 20260506124338 | 66 | 208 | 3.0 | 14.0 | 0.00 | 0.00 | 0.00 | 78 | 1007.4 |
| 20260506124140 | 66 | 228 | 6.0 | 15.0 | 0.00 | 0.00 | 0.00 | 77 | 1007.3 |
| 20260506123848 | 66 | 206 | 9.0 | 15.0 | 0.00 | 0.00 | 0.00 | 77 | 1007.4 |
| 20260506123646 | 66 | 237 | 6.0 | 15.0 | 0.00 | 0.00 | 0.00 | 78 | 1007.4 |
| 20260506123357 | 66 | 241 | 6.0 | 15.0 | 0.00 | 0.00 | 0.00 | 78 | 1007.4 |
| 20260506123156 | 66 | 206 | 8.0 | 15.0 | 0.00 | 0.00 | 0.00 | 78 | 1007.4 |
| 20260506122907 | 66 | 227 | 5.0 | 11.0 | 0.00 | 0.00 | 0.00 | 78 | 1007.4 |
| 20260506122643 | 66 | 200 | 5.0 | 15.0 | 0.00 | 0.00 | 0.00 | 78 | 1007.5 |
| 20260506122333 | 66 | 202 | 7.0 | 15.0 | 0.00 | 0.00 | 0.00 | 78 | 1007.6 |
| 20260506122132 | 66 | 227 | 4.0 | 15.0 | 0.00 | 0.00 | 0.00 | 78 | 1007.6 |
| 20260506121902 | 66 | 256 | 5.0 | 15.0 | 0.00 | 0.00 | 0.00 | 78 | 1007.6 |
| 20260506121638 | 66 | 221 | 4.0 | 10.0 | 0.00 | 0.00 | 0.00 | 78 | 1007.5 |
| 20260506121407 | 66 | 244 | 6.0 | 12.0 | 0.00 | 0.00 | 0.00 | 78 | 1007.6 |
| 20260506121143 | 66 | 197 | 5.0 | 16.0 | 0.00 | 0.00 | 0.00 | 78 | 1007.6 |
| 20260506120834 | 66 | 233 | 8.0 | 16.0 | 0.00 | 0.00 | 0.00 | 78 | 1007.7 |
| 20260506120632 | 66 | 190 | 9.0 | 16.0 | 0.00 | 0.00 | 0.00 | 78 | 1007.8 |
| 20260506120339 | 66 | 227 | 8.0 | 13.0 | 0.00 | 0.00 | 0.00 | 78 | 1007.8 |
| 20260506120140 | 66 | 189 | 5.0 | 11.0 | 0.00 | 0.00 | 0.00 | 78 | 1007.8 |
| 20260506115845 | 66 | 239 | 5.0 | 12.0 | 0.00 | 0.00 | 0.00 | 78 | 1007.9 |
| 20260506115647 | 66 | 212 | 4.0 | 12.0 | 0.00 | 0.00 | 0.00 | 78 | 1007.9 |
| 20260506115354 | 66 | 189 | 6.0 | 12.0 | 0.00 | 0.00 | 0.00 | 78 | 1007.8 |
| 20260506115156 | 66 | 215 | 5.0 | 12.0 | 0.00 | 0.00 | 0.00 | 78 | 1007.9 |
| 20260506114902 | 66 | 221 | 8.0 | 13.0 | 0.00 | 0.00 | 0.00 | 78 | 1007.9 |
| 20260506114638 | 66 | 232 | 7.0 | 11.0 | 0.00 | 0.00 | 0.00 | 78 | 1007.8 |
| 20260506114348 | 66 | 235 | 5.0 | 11.0 | 0.00 | 0.00 | 0.00 | 78 | 1008.0 |
| 20260506114148 | 66 | 228 | 7.0 | 11.0 | 0.00 | 0.00 | 0.00 | 78 | 1008.0 |
| 20260506113839 | 66 | 210 | 6.0 | 14.0 | 0.00 | 0.00 | 0.00 | 79 | 1008.0 |
| 20260506113638 | 66 | 210 | 5.0 | 14.0 | 0.00 | 0.00 | 0.00 | 79 | 1007.9 |
| 20260506113348 | 66 | 225 | 7.0 | 14.0 | 0.00 | 0.00 | 0.00 | 79 | 1007.9 |
| 20260506113207 | 66 | 207 | 6.0 | 14.0 | 0.00 | 0.00 | 0.00 | 79 | 1007.8 |
| 20260506112837 | 66 | 200 | 7.0 | 12.0 | 0.00 | 0.00 | 0.00 | 79 | 1007.9 |
| 20260506112634 | 66 | 233 | 4.0 | 12.0 | 0.00 | 0.00 | 0.00 | 79 | 1007.9 |
| 20260506112345 | 66 | 192 | 8.0 | 13.0 | 0.00 | 0.00 | 0.00 | 79 | 1007.9 |
| 20260506112143 | 66 | 171 | 5.0 | 12.0 | 0.00 | 0.00 | 0.00 | 79 | 1007.9 |
| 20260506111853 | 66 | 219 | 7.0 | 12.0 | 0.00 | 0.00 | 0.00 | 79 | 1007.9 |
| 20260506111712 | 66 | 225 | 5.0 | 13.0 | 0.00 | 0.00 | 0.00 | 79 | 1007.8 |
| 20260506111341 | 66 | 214 | 6.0 | 11.0 | 0.00 | 0.00 | 0.00 | 80 | 1007.8 |
| 20260506111137 | 65 | 168 | 4.0 | 11.0 | 0.00 | 0.00 | 0.00 | 80 | 1007.7 |
| 20260506110847 | 65 | 225 | 6.0 | 11.0 | 0.00 | 0.00 | 0.00 | 80 | 1007.8 |
| 20260506110644 | 65 | 186 | 6.0 | 12.0 | 0.00 | 0.00 | 0.00 | 80 | 1007.8 |
| 20260506110411 | 65 | 204 | 6.0 | 13.0 | 0.00 | 0.00 | 0.00 | 80 | 1007.8 |
| 20260506110151 | 65 | 182 | 6.0 | 11.0 | 0.00 | 0.00 | 0.00 | 80 | 1007.8 |
| 20260506105836 | 65 | 204 | 5.0 | 11.0 | 0.00 | 0.00 | 0.00 | 81 | 1007.7 |
| 20260506105637 | 65 | 224 | 6.0 | 11.0 | 0.00 | 0.00 | 0.00 | 81 | 1007.7 |
| 20260506105345 | 65 | 192 | 5.0 | 9.0 | 0.00 | 0.00 | 0.00 | 81 | 1007.6 |
| 20260506105147 | 65 | 192 | 4.0 | 8.0 | 0.00 | 0.00 | 0.00 | 81 | 1007.6 |
| 20260506104835 | 64 | 217 | 4.0 | 8.0 | 0.00 | 0.00 | 0.00 | 81 | 1007.6 |
| 20260506104657 | 64 | 204 | 4.0 | 10.0 | 0.00 | 0.00 | 0.00 | 81 | 1007.6 |
| 20260506104342 | 64 | 213 | 4.0 | 10.0 | 0.00 | 0.00 | 0.00 | 81 | 1007.7 |
| 20260506104144 | 64 | 214 | 4.0 | 10.0 | 0.00 | 0.00 | 0.00 | 81 | 1007.8 |
| 20260506103833 | 64 | 214 | 5.0 | 13.0 | 0.00 | 0.00 | 0.00 | 81 | 1007.8 |
| 20260506103635 | 64 | 229 | 3.0 | 13.0 | 0.00 | 0.00 | 0.00 | 81 | 1007.8 |
| 20260506103402 | 64 | 231 | 6.0 | 13.0 | 0.00 | 0.00 | 0.00 | 81 | 1007.8 |
| 20260506103140 | 64 | 228 | 7.0 | 13.0 | 0.00 | 0.00 | 0.00 | 81 | 1007.8 |
| 20260506102850 | 64 | 188 | 5.0 | 10.0 | 0.00 | 0.00 | 0.00 | 81 | 1007.7 |
| 20260506102647 | 64 | 214 | 6.0 | 10.0 | 0.00 | 0.00 | 0.00 | 81 | 1007.6 |
| 20260506102339 | 64 | 213 | 5.0 | 10.0 | 0.00 | 0.00 | 0.00 | 81 | 1007.6 |
| 20260506102137 | 64 | 238 | 4.0 | 10.0 | 0.00 | 0.00 | 0.00 | 81 | 1007.6 |
| 20260506101908 | 64 | 225 | 2.0 | 10.0 | 0.00 | 0.00 | 0.00 | 81 | 1007.6 |
| 20260506101645 | 64 | 229 | 5.0 | 10.0 | 0.00 | 0.00 | 0.00 | 81 | 1007.7 |
| 20260506101355 | 64 | 197 | 5.0 | 10.0 | 0.00 | 0.00 | 0.00 | 81 | 1007.6 |
| 20260506101133 | 64 | 200 | 5.0 | 9.0 | 0.00 | 0.00 | 0.00 | 82 | 1007.6 |
| 20260506100844 | 64 | 185 | 3.0 | 10.0 | 0.00 | 0.00 | 0.00 | 82 | 1007.7 |
| 20260506100643 | 64 | 216 | 4.0 | 10.0 | 0.00 | 0.00 | 0.00 | 82 | 1007.6 |
| 20260506100352 | 64 | 206 | 5.0 | 10.0 | 0.00 | 0.00 | 0.00 | 82 | 1007.6 |
| 20260506100150 | 64 | 189 | 3.0 | 9.0 | 0.00 | 0.00 | 0.00 | 82 | 1007.6 |
| 20260506095835 | 64 | 215 | 3.0 | 9.0 | 0.00 | 0.00 | 0.00 | 82 | 1007.4 |
| 20260506095637 | 64 | 206 | 4.0 | 9.0 | 0.00 | 0.00 | 0.00 | 82 | 1007.4 |
| 20260506095344 | 64 | 220 | 5.0 | 9.0 | 0.00 | 0.00 | 0.00 | 82 | 1007.4 |
| 20260506095146 | 64 | 206 | 3.0 | 9.0 | 0.00 | 0.00 | 0.00 | 82 | 1007.4 |
| 20260506094833 | 64 | 183 | 4.0 | 9.0 | 0.00 | 0.00 | 0.00 | 81 | 1007.5 |
| 20260506094634 | 64 | 187 | 4.0 | 12.0 | 0.00 | 0.00 | 0.00 | 81 | 1007.5 |
| 20260506094341 | 64 | 208 | 4.0 | 12.0 | 0.00 | 0.00 | 0.00 | 81 | 1007.5 |
| 20260506094142 | 64 | 182 | 4.0 | 12.0 | 0.00 | 0.00 | 0.00 | 81 | 1007.5 |
| 20260506093850 | 64 | 216 | 5.0 | 12.0 | 0.00 | 0.00 | 0.00 | 82 | 1007.4 |
| 20260506093655 | 64 | 223 | 3.0 | 10.0 | 0.00 | 0.00 | 0.00 | 81 | 1007.5 |
| 20260506093341 | 64 | 200 | 4.0 | 10.0 | 0.00 | 0.00 | 0.00 | 81 | 1007.5 |
| 20260506093143 | 64 | 195 | 4.0 | 10.0 | 0.00 | 0.00 | 0.00 | 81 | 1007.5 |
| 20260506092849 | 64 | 212 | 5.0 | 8.0 | 0.00 | 0.00 | 0.00 | 81 | 1007.6 |
| 20260506092646 | 64 | 212 | 5.0 | 8.0 | 0.00 | 0.00 | 0.00 | 81 | 1007.6 |
| 20260506092356 | 64 | 169 | 3.0 | 7.0 | 0.00 | 0.00 | 0.00 | 81 | 1007.4 |
| 20260506092134 | 64 | 206 | 4.0 | 7.0 | 0.00 | 0.00 | 0.00 | 81 | 1007.5 |
| 20260506091844 | 64 | 220 | 3.0 | 8.0 | 0.00 | 0.00 | 0.00 | 81 | 1007.5 |
| 20260506091641 | 64 | 225 | 4.0 | 8.0 | 0.00 | 0.00 | 0.00 | 81 | 1007.5 |
| 20260506091350 | 64 | 214 | 3.0 | 8.0 | 0.00 | 0.00 | 0.00 | 81 | 1007.5 |
| 20260506091147 | 64 | 213 | 4.0 | 10.0 | 0.00 | 0.00 | 0.00 | 81 | 1007.5 |
| 20260506090839 | 64 | 207 | 4.0 | 10.0 | 0.00 | 0.00 | 0.00 | 81 | 1007.5 |
| 20260506090636 | 64 | 205 | 4.0 | 10.0 | 0.00 | 0.00 | 0.00 | 81 | 1007.5 |
| 20260506090348 | 64 | 193 | 4.0 | 10.0 | 0.00 | 0.00 | 0.00 | 81 | 1007.5 |
| 20260506090146 | 64 | 227 | 4.0 | 7.0 | 0.00 | 0.00 | 0.00 | 81 | 1007.6 |
| 20260506085835 | 64 | 211 | 4.0 | 7.0 | 0.00 | 0.00 | 0.00 | 81 | 1007.6 |
| 20260506085632 | 64 | 201 | 4.0 | 7.0 | 0.00 | 0.00 | 0.00 | 81 | 1007.6 |
| 20260506085411 | 64 | 214 | 3.0 | 7.0 | 0.00 | 0.00 | 0.00 | 80 | 1007.6 |
| 20260506085148 | 64 | 204 | 5.0 | 8.0 | 0.00 | 0.00 | 0.00 | 80 | 1007.6 |
| 20260506084859 | 64 | 191 | 4.0 | 9.0 | 0.00 | 0.00 | 0.00 | 80 | 1007.7 |
| 20260506084658 | 64 | 190 | 4.0 | 9.0 | 0.00 | 0.00 | 0.00 | 80 | 1007.6 |
| 20260506084403 | 64 | 219 | 4.0 | 9.0 | 0.00 | 0.00 | 0.00 | 80 | 1007.7 |
| 20260506084145 | 64 | 214 | 5.0 | 9.0 | 0.00 | 0.00 | 0.00 | 80 | 1007.7 |
| 20260506083850 | 64 | 222 | 5.0 | 9.0 | 0.00 | 0.00 | 0.00 | 80 | 1007.7 |
| 20260506083655 | 64 | 228 | 4.0 | 9.0 | 0.00 | 0.00 | 0.00 | 80 | 1007.7 |
| 20260506083340 | 64 | 185 | 5.0 | 9.0 | 0.00 | 0.00 | 0.00 | 80 | 1007.7 |
| 20260506083141 | 64 | 198 | 4.0 | 8.0 | 0.00 | 0.00 | 0.00 | 79 | 1007.7 |
| 20260506082908 | 64 | 188 | 4.0 | 8.0 | 0.00 | 0.00 | 0.00 | 79 | 1007.7 |
| 20260506082645 | 64 | 192 | 4.0 | 8.0 | 0.00 | 0.00 | 0.00 | 79 | 1007.7 |
| 20260506082336 | 65 | 196 | 4.0 | 9.0 | 0.00 | 0.00 | 0.00 | 79 | 1007.7 |
| 20260506082134 | 65 | 199 | 4.0 | 9.0 | 0.00 | 0.00 | 0.00 | 79 | 1007.7 |
| 20260506081845 | 65 | 202 | 4.0 | 9.0 | 0.00 | 0.00 | 0.00 | 79 | 1007.8 |
| 20260506081704 | 65 | 191 | 5.0 | 9.0 | 0.00 | 0.00 | 0.00 | 78 | 1007.7 |
| 20260506081332 | 65 | 208 | 3.0 | 7.0 | 0.00 | 0.00 | 0.00 | 78 | 1007.8 |
| 20260506081149 | 65 | 204 | 3.0 | 8.0 | 0.00 | 0.00 | 0.00 | 78 | 1007.8 |
| 20260506080840 | 65 | 212 | 4.0 | 8.0 | 0.00 | 0.00 | 0.00 | 78 | 1007.7 |
| 20260506080700 | 65 | 216 | 3.0 | 8.0 | 0.00 | 0.00 | 0.00 | 78 | 1007.7 |
| 20260506080350 | 65 | 231 | 3.0 | 8.0 | 0.00 | 0.00 | 0.00 | 78 | 1007.8 |
| 20260506080147 | 65 | 223 | 4.0 | 8.0 | 0.00 | 0.00 | 0.00 | 78 | 1007.8 |
| 20260506073333 | 65 | 210 | 3.0 | 10.0 | 0.00 | 0.00 | 0.00 | 75 | 1007.7 |
| 20260506073136 | 66 | 211 | 3.0 | 10.0 | 0.00 | 0.00 | 0.00 | 75 | 1007.8 |
| 20260506072902 | 66 | 191 | 4.0 | 8.0 | 0.00 | 0.00 | 0.00 | 75 | 1007.8 |
| 20260506072643 | 66 | 202 | 3.0 | 7.0 | 0.00 | 0.00 | 0.00 | 74 | 1007.8 |
| 20260506072351 | 66 | 206 | 3.0 | 6.0 | 0.00 | 0.00 | 0.00 | 74 | 1007.8 |
| 20260506072210 | 66 | 181 | 4.0 | 6.0 | 0.00 | 0.00 | 0.00 | 74 | 1007.7 |
| 20260506071900 | 66 | 204 | 3.0 | 5.0 | 0.00 | 0.00 | 0.00 | 74 | 1007.8 |
| 20260506071636 | 66 | 202 | 3.0 | 5.0 | 0.00 | 0.00 | 0.00 | 74 | 1007.8 |
| 20260506071344 | 66 | 206 | 3.0 | 8.0 | 0.00 | 0.00 | 0.00 | 74 | 1007.7 |
| 20260506071141 | 66 | 206 | 3.0 | 9.0 | 0.00 | 0.00 | 0.00 | 74 | 1007.8 |
| 20260506070853 | 66 | 204 | 3.0 | 9.0 | 0.00 | 0.00 | 0.00 | 73 | 1007.7 |
| 20260506070712 | 66 | 216 | 4.0 | 9.0 | 0.00 | 0.00 | 0.00 | 73 | 1007.8 |
| 20260506070402 | 66 | 179 | 5.0 | 9.0 | 0.00 | 0.00 | 0.00 | 73 | 1007.8 |
| 20260506070138 | 66 | 206 | 4.0 | 8.0 | 0.00 | 0.00 | 0.00 | 73 | 1007.8 |
| 20260506062348 | 67 | 191 | 4.0 | 9.0 | 0.00 | 0.00 | 0.00 | 71 | 1007.9 |
| 20260506062146 | 67 | 198 | 3.0 | 8.0 | 0.00 | 0.00 | 0.00 | 71 | 1008.0 |
| 20260506061836 | 67 | 229 | 4.0 | 7.0 | 0.00 | 0.00 | 0.00 | 70 | 1007.9 |
| 20260506061634 | 67 | 202 | 3.0 | 6.0 | 0.00 | 0.00 | 0.00 | 71 | 1007.9 |
| 20260506061403 | 67 | 202 | 3.0 | 8.0 | 0.00 | 0.00 | 0.00 | 71 | 1008.0 |
| 20260506061140 | 67 | 198 | 4.0 | 8.0 | 0.00 | 0.00 | 0.00 | 71 | 1008.0 |
| 20260506060851 | 67 | 198 | 3.0 | 8.0 | 0.00 | 0.00 | 0.00 | 70 | 1008.0 |
| 20260506060647 | 67 | 208 | 5.0 | 8.0 | 0.00 | 0.00 | 0.00 | 70 | 1008.0 |
| 20260506060338 | 67 | 214 | 3.0 | 7.0 | 0.00 | 0.00 | 0.00 | 70 | 1008.0 |
| 20260506060135 | 67 | 213 | 3.0 | 7.0 | 0.00 | 0.00 | 0.00 | 70 | 1008.0 |
| 20260506051334 | 68 | 193 | 3.0 | 7.0 | 0.00 | 0.00 | 0.00 | 67 | 1008.4 |
| 20260506051132 | 68 | 207 | 4.0 | 7.0 | 0.00 | 0.00 | 0.00 | 67 | 1008.4 |
| 20260506050844 | 68 | 184 | 4.0 | 8.0 | 0.00 | 0.00 | 0.00 | 67 | 1008.5 |
| 20260506050643 | 68 | 204 | 4.0 | 8.0 | 0.00 | 0.00 | 0.00 | 67 | 1008.5 |
| 20260506050355 | 68 | 186 | 5.0 | 8.0 | 0.00 | 0.00 | 0.00 | 67 | 1008.5 |
| 20260506050132 | 68 | 202 | 4.0 | 8.0 | 0.00 | 0.00 | 0.00 | 66 | 1008.6 |
| 20260506044836 | 68 | 203 | 6.0 | 12.0 | 0.00 | 0.00 | 0.00 | 66 | 1008.6 |
| 20260506044635 | 68 | 187 | 6.0 | 12.0 | 0.00 | 0.00 | 0.00 | 66 | 1008.6 |
| 20260506044345 | 69 | 205 | 5.0 | 12.0 | 0.00 | 0.00 | 0.00 | 66 | 1008.6 |
| 20260506044144 | 69 | 214 | 5.0 | 12.0 | 0.00 | 0.00 | 0.00 | 66 | 1008.6 |
| 20260506043855 | 69 | 199 | 4.0 | 8.0 | 0.00 | 0.00 | 0.00 | 66 | 1008.5 |
| 20260506043632 | 69 | 194 | 5.0 | 8.0 | 0.00 | 0.00 | 0.00 | 66 | 1008.5 |
| 20260506043340 | 69 | 198 | 2.0 | 8.0 | 0.00 | 0.00 | 0.00 | 66 | 1008.5 |
| 20260506043140 | 69 | 198 | 4.0 | 8.0 | 0.00 | 0.00 | 0.00 | 66 | 1008.5 |
| 20260506042846 | 69 | 206 | 5.0 | 8.0 | 0.00 | 0.00 | 0.00 | 66 | 1008.5 |
| 20260506042647 | 69 | 225 | 5.0 | 8.0 | 0.00 | 0.00 | 0.00 | 66 | 1008.5 |
| 20260506042414 | 69 | 215 | 4.0 | 7.0 | 0.00 | 0.00 | 0.00 | 65 | 1008.5 |
| 20260506042154 | 69 | 216 | 4.0 | 8.0 | 0.00 | 0.00 | 0.00 | 65 | 1008.5 |
| 20260506041900 | 69 | 201 | 5.0 | 8.0 | 0.00 | 0.00 | 0.00 | 65 | 1008.5 |
| 20260506041658 | 69 | 214 | 5.0 | 10.0 | 0.00 | 0.00 | 0.00 | 65 | 1008.5 |
| 20260506041354 | 69 | 202 | 5.0 | 10.0 | 0.00 | 0.00 | 0.00 | 65 | 1008.5 |
| 20260506041144 | 69 | 214 | 4.0 | 10.0 | 0.00 | 0.00 | 0.00 | 65 | 1008.5 |
| 20260506040836 | 69 | 218 | 6.0 | 11.0 | 0.00 | 0.00 | 0.00 | 65 | 1008.5 |
| 20260506040655 | 69 | 210 | 6.0 | 11.0 | 0.00 | 0.00 | 0.00 | 65 | 1008.5 |
| 20260506040343 | 69 | 227 | 4.0 | 11.0 | 0.00 | 0.00 | 0.00 | 65 | 1008.5 |
| 20260506040141 | 69 | 202 | 5.0 | 11.0 | 0.00 | 0.00 | 0.00 | 64 | 1008.4 |
| 20260506035845 | 69 | 204 | 5.0 | 11.0 | 0.00 | 0.00 | 0.00 | 64 | 1008.3 |